QPF
0.01 0.02 0.03 0.04 0.03 0.02 0.01 0.03 0.05 0.05 0.03 0.03 0.04 0.04 0.06 0.08 0.08 0.06 0.06 0.06 0.06 0.05 0.05 0.05 0.07 0.09 0.11 0.08 0.07 0.08 0.06 0.04 0.04 0.07 0.06 0.07 0.12 0.10 0.08 0.09 0.10 0.11 0.10
0.01 0.01 0.03 0.04 0.04 0.02 0.01 0.01 0.02 0.04 0.03 0.02 0.03 0.04 0.05 0.06 0.07 0.08 0.08 0.07 0.05 0.05 0.05 0.04 0.05 0.06 0.05 0.04 0.05 0.06 0.05 0.04 0.05 0.06 0.05 0.05 0.12 0.09 0.08 0.09 0.12 0.13 0.11
0.00 0.01 0.02 0.03 0.03 0.03 0.02 0.01 0.02 0.03 0.02 0.03 0.03 0.03 0.04 0.06 0.10 0.11 0.11 0.07 0.05 0.04 0.04 0.04 0.04 0.04 0.05 0.04 0.03 0.04 0.05 0.06 0.05 0.05 0.04 0.02 0.02 0.03 0.05 0.06 0.08 0.11 0.16
0.00 0.00 0.01 0.02 0.03 0.04 0.03 0.02 0.02 0.03 0.03 0.03 0.03 0.02 0.04 0.07 0.09 0.10 0.09 0.06 0.06 0.06 0.06 0.06 0.04 0.04 0.05 0.03 0.03 0.04 0.04 0.05 0.04 0.03 0.03 0.03 0.02 0.02 0.02 0.04 0.05 0.07 0.09
0.00 0.00 0.01 0.02 0.03 0.05 0.05 0.04 0.03 0.05 0.05 0.04 0.04 0.03 0.04 0.07 0.10 0.10 0.07 0.06 0.08 0.10 0.10 0.07 0.05 0.04 0.04 0.04 0.03 0.03 0.04 0.03 0.04 0.04 0.03 0.04 0.03 0.02 0.02 0.04 0.06 0.08 0.06
0.01 0.00 0.01 0.01 0.03 0.05 0.05 0.05 0.04 0.07 0.08 0.06 0.06 0.05 0.05 0.06 0.08 0.08 0.07 0.07 0.08 0.09 0.07 0.06 0.04 0.03 0.03 0.04 0.04 0.04 0.03 0.04 0.05 0.05 0.04 0.04 0.04 0.04 0.03 0.04 0.05 0.06 0.08
0.02 0.01 0.01 0.01 0.02 0.03 0.04 0.04 0.04 0.06 0.07 0.07 0.07 0.06 0.06 0.05 0.04 0.04 0.04 0.05 0.04 0.04 0.05 0.05 0.03 0.02 0.03 0.04 0.03 0.04 0.05 0.05 0.05 0.05 0.05 0.05 0.06 0.06 0.03 0.03 0.03 0.02 0.04
0.02 0.01 0.01 0.01 0.01 0.01 0.02 0.03 0.03 0.03 0.04 0.04 0.05 0.05 0.05 0.03 0.03 0.04 0.03 0.03 0.02 0.02 0.02 0.03 0.03 0.02 0.02 0.02 0.03 0.04 0.04 0.05 0.06 0.07 0.05 0.04 0.04 0.05 0.03 0.02 0.03 0.02 0.03
0.02 0.02 0.01 0.01 0.01 0.01 0.01 0.01 0.01 0.00 0.01 0.02 0.02 0.03 0.03 0.02 0.03 0.03 0.02 0.03 0.03 0.02 0.02 0.02 0.02 0.01 0.01 0.01 0.02 0.03 0.03 0.03 0.04 0.04 0.04 0.04 0.04 0.04 0.04 0.02 0.03 0.02 0.02
0.05 0.04 0.04 0.02 0.01 0.01 0.00 0.00 0.00 0.00 0.00 0.01 0.01 0.01 0.02 0.02 0.03 0.02 0.02 0.03 0.03 0.02 0.02 0.02 0.02 0.01 0.01 0.01 0.02 0.02 0.02 0.02 0.04 0.04 0.04 0.04 0.04 0.05 0.06 0.04 0.03 0.02 0.02
0.07 0.06 0.04 0.02 0.01 0.02 0.01 0.00 0.00 0.00 0.00 0.00 0.01 0.01 0.02 0.02 0.03 0.02 0.02 0.02 0.02 0.02 0.02 0.02 0.01 0.01 0.01 0.02 0.02 0.04 0.03 0.02 0.02 0.02 0.04 0.06 0.05 0.05 0.05 0.04 0.04 0.04 0.03
0.04 0.03 0.03 0.02 0.02 0.02 0.01 0.01 0.01 0.00 0.01 0.01 0.01 0.01 0.01 0.01 0.01 0.02 0.02 0.02 0.02 0.03 0.03 0.02 0.02 0.02 0.01 0.01 0.02 0.03 0.03 0.02 0.02 0.01 0.03 0.05 0.04 0.04 0.04 0.04 0.03 0.03 0.02
0.03 0.04 0.03 0.02 0.02 0.02 0.01 0.01 0.01 0.01 0.01 0.01 0.01 0.01 0.02 0.01 0.01 0.01 0.02 0.01 0.02 0.02 0.01 0.01 0.01 0.02 0.01 0.01 0.02 0.03 0.03 0.02 0.01 0.01 0.01 0.03 0.04 0.04 0.04 0.03 0.02 0.02 0.02
0.03 0.03 0.03 0.03 0.02 0.02 0.01 0.01 0.01 0.01 0.01 0.01 0.02 0.02 0.03 0.03 0.03 0.02 0.02 0.02 0.03 0.02 0.01 0.01 0.01 0.01 0.01 0.01 0.02 0.02 0.02 0.01 0.01 0.00 0.01 0.02 0.03 0.04 0.06 0.05 0.03 0.03 0.03
0.02 0.02 0.02 0.04 0.03 0.02 0.01 0.01 0.01 0.01 0.01 0.01 0.02 0.02 0.03 0.04 0.04 0.03 0.03 0.05 0.04 0.02 0.02 0.01 0.01 0.01 0.01 0.02 0.02 0.01 0.01 0.00 0.00 0.01 0.01 0.02 0.03 0.05 0.05 0.04 0.04 0.04 0.03
0.02 0.02 0.03 0.02 0.03 0.03 0.02 0.01 0.01 0.01 0.01 0.01 0.02 0.02 0.02 0.02 0.02 0.03 0.05 0.05 0.03 0.02 0.02 0.02 0.02 0.02 0.02 0.02 0.01 0.01 0.00 0.01 0.01 0.01 0.01 0.01 0.02 0.02 0.03 0.04 0.04 0.03 0.03
0.02 0.03 0.04 0.03 0.04 0.03 0.02 0.01 0.01 0.01 0.01 0.01 0.03 0.02 0.01 0.02 0.01 0.01 0.03 0.03 0.03 0.03 0.02 0.02 0.01 0.01 0.01 0.02 0.02 0.01 0.01 0.01 0.00 0.01 0.01 0.01 0.01 0.01 0.01 0.03 0.04 0.03 0.03
0.01 0.03 0.03 0.03 0.02 0.02 0.02 0.02 0.02 0.01 0.01 0.01 0.01 0.01 0.01 0.01 0.01 0.01 0.01 0.02 0.03 0.03 0.02 0.01 0.01 0.01 0.01 0.01 0.01 0.01 0.00 0.00 0.00 0.00 0.00 0.01 0.01 0.01 0.01 0.02 0.03 0.03 0.03
0.02 0.02 0.04 0.04 0.04 0.03 0.02 0.03 0.02 0.02 0.02 0.01 0.01 0.01 0.01 0.01 0.01 0.01 0.01 0.01 0.02 0.02 0.02 0.02 0.03 0.02 0.01 0.01 0.01 0.00 0.00 0.00 0.00 0.00 0.00 0.01 0.01 0.01 0.02 0.02 0.01 0.01 0.02
0.03 0.02 0.02 0.04 0.03 0.04 0.04 0.03 0.04 0.06 0.06 0.04 0.03 0.03 0.03 0.02 0.02 0.02 0.02 0.01 0.02 0.02 0.02 0.02 0.02 0.02 0.01 0.01 0.01 0.01 0.01 0.01 0.01 0.01 0.01 0.01 0.02 0.02 0.01 0.01 0.01 0.01 0.01
0.02 0.02 0.01 0.02 0.03 0.03 0.04 0.07 0.10 0.08 0.07 0.07 0.04 0.04 0.03 0.03 0.02 0.03 0.03 0.02 0.02 0.02 0.02 0.02 0.02 0.03 0.03 0.03 0.03 0.03 0.02 0.01 0.01 0.01 0.01 0.01 0.02 0.01 0.01 0.01 0.01 0.01 0.01
0.02 0.02 0.02 0.01 0.02 0.04 0.05 0.04 0.08 0.11 0.07 0.06 0.06 0.06 0.05 0.04 0.03 0.02 0.03 0.03 0.04 0.05 0.06 0.06 0.05 0.04 0.04 0.04 0.04 0.03 0.02 0.02 0.02 0.02 0.02 0.02 0.01 0.01 0.01 0.01 0.01 0.02 0.01
0.02 0.02 0.02 0.01 0.02 0.04 0.03 0.02 0.02 0.03 0.04 0.04 0.04 0.06 0.06 0.06 0.05 0.04 0.03 0.05 0.05 0.06 0.06 0.07 0.08 0.08 0.07 0.05 0.03 0.03 0.02 0.02 0.02 0.01 0.01 0.01 0.01 0.01 0.00 0.01 0.01 0.01 0.01
0.02 0.02 0.02 0.01 0.01 0.03 0.03 0.03 0.03 0.02 0.03 0.03 0.04 0.05 0.06 0.06 0.06 0.06 0.06 0.06 0.06 0.06 0.05 0.05 0.05 0.05 0.05 0.04 0.04 0.03 0.03 0.03 0.02 0.02 0.01 0.01 0.01 0.00 0.00 0.01 0.01 0.01 0.01
0.04 0.04 0.03 0.01 0.01 0.02 0.03 0.04 0.06 0.07 0.06 0.06 0.06 0.07 0.07 0.07 0.07 0.08 0.08 0.07 0.07 0.06 0.06 0.05 0.05 0.05 0.04 0.04 0.05 0.05 0.04 0.04 0.04 0.04 0.03 0.02 0.01 0.00 0.00 0.00 0.01 0.01 0.02
0.04 0.04 0.04 0.02 0.02 0.02 0.03 0.03 0.05 0.08 0.09 0.08 0.06 0.07 0.08 0.06 0.07 0.07 0.08 0.10 0.09 0.09 0.08 0.06 0.05 0.04 0.03 0.04 0.04 0.03 0.02 0.03 0.04 0.04 0.02 0.02 0.01 0.01 0.02 0.02 0.02 0.02 0.02
MSLP
1011.04 1011.24 1011.38 1011.42 1011.38 1011.27 1011.17 1011.11 1011.15 1011.30 1011.54 1011.82 1012.10 1012.30 1012.41 1012.39 1012.27 1012.09 1011.90 1011.75 1011.68 1011.70 1011.79 1011.93 1012.07 1012.18 1012.23 1012.23 1012.19 1012.13 1012.11 1012.15 1012.26 1012.43 1012.64 1012.85 1013.02 1013.10 1013.09 1012.99 1012.83 1012.65 1012.50
1010.90 1011.15 1011.33 1011.39 1011.34 1011.21 1011.07 1010.99 1011.04 1011.23 1011.54 1011.91 1012.28 1012.57 1012.73 1012.74 1012.62 1012.42 1012.19 1012.01 1011.92 1011.94 1012.06 1012.25 1012.45 1012.62 1012.71 1012.73 1012.68 1012.60 1012.54 1012.54 1012.61 1012.77 1012.99 1013.22 1013.43 1013.56 1013.60 1013.53 1013.39 1013.21 1013.04
1010.60 1010.91 1011.14 1011.24 1011.21 1011.08 1010.94 1010.87 1010.94 1011.17 1011.53 1011.98 1012.43 1012.79 1013.01 1013.05 1012.94 1012.72 1012.47 1012.27 1012.16 1012.19 1012.33 1012.56 1012.80 1013.02 1013.14 1013.18 1013.13 1013.03 1012.94 1012.89 1012.94 1013.08 1013.30 1013.55 1013.80 1013.99 1014.09 1014.09 1014.00 1013.85 1013.69
1010.15 1010.51 1010.80 1010.96 1010.97 1010.88 1010.77 1010.72 1010.81 1011.07 1011.49 1011.99 1012.50 1012.93 1013.20 1013.29 1013.19 1012.98 1012.73 1012.51 1012.40 1012.42 1012.58 1012.82 1013.10 1013.34 1013.50 1013.55 1013.51 1013.40 1013.29 1013.22 1013.24 1013.36 1013.57 1013.84 1014.12 1014.36 1014.52 1014.58 1014.55 1014.46 1014.34
1009.56 1009.97 1010.33 1010.56 1010.63 1010.60 1010.53 1010.51 1010.63 1010.92 1011.36 1011.91 1012.47 1012.95 1013.28 1013.41 1013.36 1013.18 1012.94 1012.73 1012.62 1012.64 1012.80 1013.05 1013.34 1013.60 1013.78 1013.85 1013.82 1013.72 1013.61 1013.53 1013.53 1013.63 1013.83 1014.09 1014.38 1014.64 1014.84 1014.96 1014.99 1014.96 1014.89
1008.90 1009.34 1009.76 1010.07 1010.22 1010.25 1010.22 1010.24 1010.37 1010.68 1011.14 1011.71 1012.30 1012.83 1013.22 1013.42 1013.43 1013.31 1013.11 1012.93 1012.83 1012.85 1013.00 1013.25 1013.53 1013.80 1014.00 1014.09 1014.09 1014.02 1013.92 1013.85 1013.84 1013.93 1014.10 1014.33 1014.59 1014.84 1015.05 1015.19 1015.27 1015.29 1015.28
1008.21 1008.69 1009.17 1009.55 1009.77 1009.86 1009.87 1009.91 1010.06 1010.36 1010.82 1011.40 1012.01 1012.58 1013.03 1013.31 1013.40 1013.35 1013.23 1013.09 1013.02 1013.05 1013.19 1013.43 1013.71 1013.98 1014.19 1014.31 1014.35 1014.32 1014.26 1014.21 1014.20 1014.26 1014.39 1014.58 1014.79 1014.99 1015.17 1015.30 1015.38 1015.44 1015.48
1007.56 1008.07 1008.61 1009.04 1009.32 1009.46 1009.51 1009.56 1009.71 1009.99 1010.44 1011.00 1011.63 1012.23 1012.74 1013.09 1013.28 1013.33 1013.29 1013.22 1013.19 1013.24 1013.39 1013.61 1013.88 1014.14 1014.37 1014.53 1014.61 1014.63 1014.62 1014.60 1014.61 1014.66 1014.75 1014.86 1015.00 1015.12 1015.23 1015.32 1015.39 1015.46 1015.54
1006.98 1007.52 1008.09 1008.56 1008.89 1009.06 1009.14 1009.21 1009.35 1009.62 1010.03 1010.58 1011.20 1011.82 1012.38 1012.80 1013.09 1013.23 1013.29 1013.31 1013.34 1013.42 1013.57 1013.79 1014.05 1014.32 1014.56 1014.75 1014.88 1014.97 1015.01 1015.04 1015.06 1015.10 1015.15 1015.20 1015.24 1015.28 1015.30 1015.33 1015.36 1015.43 1015.53
1006.48 1007.03 1007.61 1008.11 1008.46 1008.67 1008.78 1008.87 1009.01 1009.26 1009.66 1010.18 1010.79 1011.42 1012.00 1012.49 1012.85 1013.10 1013.25 1013.35 1013.45 1013.57 1013.75 1013.97 1014.23 1014.50 1014.76 1014.98 1015.16 1015.30 1015.40 1015.48 1015.53 1015.57 1015.58 1015.57 1015.54 1015.49 1015.43 1015.39 1015.38 1015.43 1015.54
1006.03 1006.57 1007.14 1007.64 1008.01 1008.26 1008.40 1008.52 1008.69 1008.96 1009.35 1009.86 1010.45 1011.07 1011.67 1012.19 1012.61 1012.93 1013.17 1013.35 1013.52 1013.70 1013.90 1014.14 1014.41 1014.69 1014.96 1015.21 1015.43 1015.62 1015.78 1015.90 1015.98 1016.02 1016.02 1015.98 1015.89 1015.77 1015.65 1015.55 1015.50 1015.53 1015.64
1005.60 1006.09 1006.62 1007.10 1007.48 1007.76 1007.96 1008.15 1008.37 1008.68 1009.10 1009.61 1010.19 1010.80 1011.39 1011.92 1012.37 1012.75 1013.05 1013.31 1013.54 1013.78 1014.03 1014.31 1014.59 1014.88 1015.17 1015.44 1015.69 1015.91 1016.10 1016.26 1016.37 1016.43 1016.43 1016.37 1016.26 1016.11 1015.95 1015.81 1015.74 1015.76 1015.87
1005.14 1005.53 1005.98 1006.42 1006.80 1007.12 1007.41 1007.69 1008.01 1008.41 1008.88 1009.41 1010.00 1010.59 1011.17 1011.69 1012.16 1012.56 1012.91 1013.23 1013.53 1013.84 1014.15 1014.46 1014.78 1015.09 1015.39 1015.67 1015.92 1016.16 1016.37 1016.55 1016.68 1016.76 1016.78 1016.73 1016.62 1016.47 1016.30 1016.16 1016.09 1016.10 1016.21
1004.64 1004.88 1005.20 1005.56 1005.93 1006.30 1006.68 1007.10 1007.56 1008.07 1008.64 1009.23 1009.84 1010.43 1010.99 1011.50 1011.95 1012.37 1012.75 1013.13 1013.50 1013.87 1014.25 1014.62 1014.98 1015.32 1015.62 1015.90 1016.15 1016.38 1016.58 1016.76 1016.90 1017.00 1017.04 1017.01 1016.93 1016.81 1016.67 1016.55 1016.49 1016.50 1016.61
1004.09 1004.13 1004.28 1004.53 1004.87 1005.28 1005.77 1006.33 1006.96 1007.63 1008.32 1009.01 1009.67 1010.27 1010.82 1011.31 1011.75 1012.17 1012.59 1013.01 1013.45 1013.91 1014.36 1014.80 1015.20 1015.57 1015.88 1016.15 1016.38 1016.58 1016.75 1016.91 1017.04 1017.15 1017.21 1017.22 1017.18 1017.11 1017.02 1016.93 1016.89 1016.91 1017.00
1003.52 1003.32 1003.27 1003.38 1003.66 1004.10 1004.69 1005.41 1006.21 1007.06 1007.90 1008.70 1009.43 1010.07 1010.62 1011.10 1011.54 1011.98 1012.42 1012.90 1013.41 1013.94 1014.48 1014.99 1015.45 1015.85 1016.17 1016.42 1016.61 1016.77 1016.90 1017.02 1017.13 1017.23 1017.30 1017.35 1017.36 1017.34 1017.30 1017.25 1017.23 1017.26 1017.34
1003.00 1002.52 1002.24 1002.20 1002.40 1002.84 1003.51 1004.36 1005.33 1006.35 1007.35 1008.28 1009.10 1009.79 1010.38 1010.87 1011.32 1011.78 1012.26 1012.79 1013.37 1013.99 1014.60 1015.19 1015.70 1016.13 1016.46 1016.69 1016.85 1016.96 1017.03 1017.10 1017.18 1017.26 1017.34 1017.42 1017.47 1017.50 1017.50 1017.50 1017.50 1017.53 1017.59
1002.58 1001.83 1001.32 1001.09 1001.19 1001.62 1002.34 1003.29 1004.40 1005.57 1006.72 1007.77 1008.69 1009.45 1010.08 1010.61 1011.10 1011.58 1012.11 1012.70 1013.34 1014.03 1014.72 1015.37 1015.93 1016.39 1016.72 1016.94 1017.06 1017.12 1017.15 1017.17 1017.21 1017.28 1017.36 1017.45 1017.53 1017.60 1017.64 1017.66 1017.68 1017.69 1017.73
1002.33 1001.33 1000.59 1000.20 1000.19 1000.56 1001.29 1002.30 1003.51 1004.79 1006.06 1007.22 1008.23 1009.08 1009.77 1010.35 1010.88 1011.41 1011.98 1012.62 1013.32 1014.07 1014.81 1015.51 1016.11 1016.59 1016.92 1017.13 1017.23 1017.25 1017.24 1017.23 1017.24 1017.28 1017.36 1017.46 1017.56 1017.65 1017.72 1017.75 1017.77 1017.76 1017.76
1002.26 1001.07 1000.15 999.61 999.48 999.78 1000.49 1001.51 1002.76 1004.11 1005.45 1006.70 1007.79 1008.71 1009.47 1010.11 1010.69 1011.27 1011.89 1012.57 1013.31 1014.08 1014.86 1015.58 1016.19 1016.68 1017.01 1017.21 1017.30 1017.31 1017.28 1017.25 1017.24 1017.28 1017.36 1017.46 1017.57 1017.67 1017.74 1017.78 1017.77 1017.75 1017.71
1002.39 1001.07 1000.03 999.36 999.13 999.35 1000.00 1000.99 1002.23 1003.59 1004.97 1006.26 1007.41 1008.40 1009.22 1009.92 1010.56 1011.18 1011.83 1012.53 1013.29 1014.07 1014.84 1015.55 1016.16 1016.64 1016.98 1017.18 1017.26 1017.27 1017.24 1017.22 1017.22 1017.26 1017.34 1017.44 1017.55 1017.65 1017.71 1017.72 1017.70 1017.64 1017.55
1002.68 1001.31 1000.20 999.46 999.14 999.28 999.85 1000.78 1001.97 1003.30 1004.66 1005.97 1007.15 1008.18 1009.06 1009.81 1010.49 1011.15 1011.82 1012.52 1013.26 1014.02 1014.76 1015.44 1016.02 1016.48 1016.80 1017.00 1017.10 1017.13 1017.13 1017.12 1017.14 1017.19 1017.27 1017.37 1017.47 1017.55 1017.59 1017.57 1017.51 1017.42 1017.29
1003.07 1001.72 1000.61 999.83 999.47 999.53 1000.01 1000.85 1001.96 1003.23 1004.55 1005.83 1007.02 1008.07 1008.98 1009.78 1010.50 1011.18 1011.85 1012.53 1013.23 1013.94 1014.62 1015.24 1015.77 1016.20 1016.51 1016.72 1016.83 1016.89 1016.92 1016.95 1016.99 1017.05 1017.14 1017.23 1017.31 1017.35 1017.36 1017.31 1017.21 1017.08 1016.92
1003.49 1002.22 1001.16 1000.40 1000.01 1000.02 1000.42 1001.16 1002.17 1003.34 1004.59 1005.83 1007.00 1008.06 1008.99 1009.82 1010.55 1011.24 1011.90 1012.55 1013.19 1013.83 1014.43 1014.98 1015.45 1015.84 1016.13 1016.34 1016.48 1016.57 1016.64 1016.70 1016.76 1016.84 1016.92 1016.99 1017.04 1017.04 1017.00 1016.91 1016.78 1016.61 1016.42
1003.88 1002.73 1001.76 1001.05 1000.66 1000.64 1000.96 1001.61 1002.51 1003.59 1004.75 1005.93 1007.07 1008.11 1009.05 1009.89 1010.63 1011.31 1011.95 1012.55 1013.13 1013.69 1014.21 1014.68 1015.09 1015.43 1015.70 1015.91 1016.07 1016.19 1016.29 1016.38 1016.47 1016.55 1016.61 1016.65 1016.66 1016.62 1016.53 1016.40 1016.23 1016.04 1015.84
1004.17 1003.16 1002.30 1001.67 1001.31 1001.27 1001.54 1002.10 1002.91 1003.89 1004.97 1006.08 1007.17 1008.19 1009.12 1009.95 1010.69 1011.36 1011.96 1012.52 1013.03 1013.51 1013.95 1014.35 1014.70 1015.00 1015.26 1015.47 1015.64 1015.78 1015.91 1016.02 1016.11 1016.18 1016.22 1016.22 1016.19 1016.10 1015.97 1015.81 1015.62 1015.42 1015.23
Thickness
5805 5806 5805 5804 5801 5798 5796 5793 5790 5788 5786 5784 5781 5778 5776 5777 5777 5778 5777 5776 5775 5774 5772 5771 5769 5768 5765 5763 5762 5759 5756 5755 5755 5750 5746 5746 5748 5747 5747 5747 5746 5744 5743
5803 5803 5803 5802 5800 5797 5795 5793 5791 5789 5787 5785 5783 5781 5779 5778 5778 5778 5777 5776 5775 5774 5773 5771 5769 5768 5765 5762 5761 5758 5754 5753 5753 5748 5741 5736 5738 5742 5745 5744 5743 5742 5741
5804 5803 5803 5802 5800 5798 5796 5795 5792 5790 5788 5786 5784 5782 5779 5777 5776 5775 5775 5776 5775 5774 5773 5771 5770 5768 5766 5762 5761 5759 5755 5750 5750 5751 5744 5735 5730 5734 5738 5740 5741 5740 5739
5808 5806 5804 5802 5802 5800 5799 5796 5793 5790 5789 5787 5784 5780 5776 5773 5774 5775 5775 5775 5775 5774 5773 5772 5770 5768 5766 5763 5761 5760 5757 5753 5748 5749 5748 5746 5741 5733 5730 5734 5736 5737 5737
5812 5809 5808 5806 5805 5804 5801 5797 5793 5790 5789 5787 5785 5781 5777 5776 5776 5775 5774 5773 5773 5773 5772 5771 5770 5768 5765 5763 5761 5759 5757 5754 5750 5748 5746 5744 5741 5739 5732 5727 5730 5732 5734
5815 5813 5812 5810 5806 5805 5801 5797 5793 5790 5789 5787 5785 5782 5778 5776 5774 5772 5771 5771 5770 5771 5771 5770 5768 5767 5765 5762 5761 5759 5757 5754 5752 5750 5747 5744 5740 5737 5734 5728 5727 5727 5729
5814 5811 5810 5808 5806 5803 5801 5797 5793 5789 5788 5786 5784 5782 5779 5777 5774 5772 5770 5769 5768 5768 5768 5769 5767 5765 5764 5762 5760 5758 5756 5754 5752 5750 5748 5746 5744 5742 5738 5732 5728 5726 5726
5817 5815 5813 5811 5808 5805 5801 5798 5793 5789 5788 5785 5783 5782 5780 5777 5774 5773 5771 5769 5768 5768 5768 5767 5765 5764 5763 5762 5760 5757 5755 5754 5752 5750 5748 5746 5745 5744 5741 5736 5730 5723 5721
5820 5817 5815 5813 5810 5807 5803 5799 5794 5790 5788 5785 5783 5780 5778 5776 5774 5773 5772 5770 5768 5768 5767 5765 5764 5763 5762 5760 5758 5755 5754 5752 5751 5749 5748 5746 5745 5744 5742 5739 5735 5727 5718
5821 5819 5816 5815 5812 5809 5806 5801 5797 5792 5789 5786 5783 5780 5777 5776 5774 5772 5770 5768 5767 5767 5765 5763 5762 5760 5759 5758 5756 5753 5752 5750 5749 5748 5746 5744 5743 5742 5741 5738 5736 5732 5726
5822 5819 5817 5817 5814 5810 5806 5801 5797 5792 5788 5785 5782 5779 5776 5775 5773 5770 5769 5767 5766 5765 5763 5761 5760 5758 5757 5756 5754 5751 5750 5748 5747 5746 5744 5742 5742 5740 5739 5737 5735 5732 5728
5823 5821 5818 5815 5812 5808 5804 5801 5797 5793 5790 5786 5782 5778 5776 5773 5770 5768 5767 5766 5764 5763 5761 5759 5758 5756 5755 5754 5752 5749 5748 5746 5744 5743 5742 5740 5740 5737 5736 5734 5732 5730 5728
5818 5816 5814 5812 5810 5807 5804 5801 5798 5794 5791 5787 5782 5777 5774 5771 5769 5767 5765 5763 5762 5760 5759 5757 5755 5754 5753 5751 5750 5748 5746 5744 5742 5741 5739 5737 5736 5733 5732 5730 5729 5727 5725
5813 5811 5810 5810 5809 5806 5803 5800 5797 5795 5791 5786 5781 5776 5773 5771 5768 5766 5763 5761 5760 5758 5756 5755 5753 5752 5750 5748 5747 5745 5743 5741 5739 5738 5737 5735 5734 5731 5730 5728 5725 5723 5720
5808 5806 5805 5805 5805 5804 5801 5798 5796 5793 5790 5785 5780 5776 5774 5771 5767 5764 5762 5759 5757 5756 5754 5752 5750 5749 5747 5746 5744 5742 5740 5737 5735 5735 5734 5733 5732 5730 5729 5726 5723 5720 5716
5807 5805 5804 5802 5802 5802 5799 5797 5794 5791 5788 5783 5779 5776 5773 5769 5766 5763 5760 5757 5755 5753 5751 5749 5747 5745 5745 5743 5742 5739 5737 5734 5732 5730 5730 5730 5728 5727 5726 5724 5722 5719 5713
5804 5802 5802 5801 5800 5800 5799 5795 5792 5790 5786 5781 5777 5774 5771 5768 5765 5763 5758 5755 5753 5751 5748 5746 5744 5742 5741 5740 5738 5737 5734 5731 5729 5727 5725 5725 5724 5722 5720 5719 5718 5715 5713
5799 5799 5799 5799 5798 5798 5795 5793 5789 5786 5782 5778 5775 5772 5769 5766 5763 5760 5756 5754 5752 5748 5745 5743 5741 5738 5738 5736 5734 5732 5730 5727 5725 5723 5721 5719 5717 5717 5715 5713 5711 5709 5707
5798 5798 5798 5797 5794 5793 5791 5787 5783 5781 5778 5775 5772 5770 5767 5763 5760 5756 5754 5752 5749 5746 5743 5741 5738 5735 5734 5733 5731 5728 5724 5721 5720 5719 5717 5715 5713 5713 5711 5708 5705 5702 5702
5795 5794 5792 5790 5787 5788 5786 5781 5777 5774 5771 5771 5769 5767 5764 5761 5758 5755 5753 5750 5747 5744 5742 5738 5736 5733 5730 5729 5727 5723 5720 5715 5713 5712 5711 5710 5708 5708 5705 5702 5699 5695 5695
5787 5788 5786 5783 5781 5781 5779 5774 5770 5768 5768 5767 5765 5763 5761 5758 5756 5753 5750 5747 5744 5740 5737 5734 5731 5729 5727 5724 5722 5719 5715 5712 5708 5706 5705 5704 5704 5702 5700 5698 5695 5692 5690
5777 5778 5777 5775 5775 5775 5771 5766 5764 5765 5764 5762 5758 5756 5755 5754 5752 5749 5746 5743 5740 5735 5732 5728 5725 5724 5722 5720 5718 5715 5713 5710 5706 5703 5702 5701 5699 5697 5695 5693 5691 5689 5685
5767 5768 5767 5766 5765 5766 5764 5759 5759 5760 5757 5754 5751 5750 5749 5748 5746 5744 5740 5737 5734 5730 5727 5723 5721 5719 5718 5717 5714 5711 5708 5705 5702 5701 5699 5697 5694 5692 5689 5687 5685 5682 5678
5755 5756 5756 5755 5754 5755 5755 5754 5754 5753 5751 5747 5745 5744 5742 5741 5739 5738 5736 5733 5729 5726 5723 5720 5717 5715 5713 5711 5709 5706 5703 5700 5697 5694 5693 5691 5688 5685 5683 5680 5677 5675 5672
5742 5744 5744 5745 5745 5746 5745 5747 5747 5746 5742 5740 5738 5736 5734 5733 5731 5730 5729 5728 5727 5725 5721 5718 5715 5710 5707 5707 5705 5701 5698 5695 5692 5688 5684 5682 5679 5676 5675 5673 5671 5668 5665
5734 5734 5734 5735 5736 5737 5737 5738 5740 5739 5736 5733 5731 5728 5727 5726 5725 5723 5721 5721 5721 5720 5718 5716 5713 5710 5708 5704 5700 5697 5695 5691 5687 5682 5678 5675 5673 5671 5669 5667 5664 5662 5659